Hourly Data Report for February 21, 2002

SHERBROOKE A
QUEBEC

45°26'00.000" N
71°41'00.000" W
241.40 m
7028124
71610
YSC

Download Data

Hourly Data (February 2002)
Hourly Data Report for February 21, 2002
TIME
LST
Temp Definition
°C
Dew Point Definition
°C
Rel Hum Definition
%
Precip. Amount Definition
mm

Wind Dir Definition
10's deg

Wind Spd Definition
km/h
Visibility Definition
km
Stn Press Definition
kPa
Hmdx Definition


Wind Chill Definition


Weather Definition


00:00 2.2 0.9 91   10 6 8.0 98.03     Moderate Rain
01:00 2.1 1.6 96   7 6 8.0 97.93     Rain
02:00 3.0 2.4 96   10 9 15.0 97.83     Rain
03:00 2.5 2.4 99   7 6 8.0 97.79     Drizzle
04:00 2.9 2.6 98   8 7 9.7 97.78      
05:00 3.4 2.9 97   9 6 15.0 97.78      
06:00 3.6 2.9 95   9 7 15.0 97.76      
07:00 3.4 2.6 94     0 15.0 97.78      
08:00 3.8 3.2 96   9 6 24.1 97.81     Cloudy
09:00 4.9 3.8 93   10 9 24.1 97.76     Mostly Cloudy
10:00 5.4 4.2 92   13 6 24.1 97.77     Cloudy
11:00 5.8 4.7 93   9 4 19.3 97.76     Rain
12:00 5.7 5.3 97   8 4 12.9 97.71     Rain
13:00 5.5 5.3 99   8 4 6.4 97.64     Rain, Fog
14:00 4.6 4.5 99   27 13 0.4 97.66     Rain Showers, Fog
15:00 4.8 4.1 95   26 13 19.3 97.72     Rain Showers
16:00 4.3 3.9 97   26 11 16.1 97.79     Rain Showers
17:00 3.7 3.5 99   25 7 19.3 97.82     Cloudy
18:00 3.4 3.3 99     0 3.9 97.84      
19:00 3.2 3.0 99   18 6 9.7 97.87      
20:00 1.3 1.3 100     0 0.3 97.84      
21:00 1.6 1.6 100   21 6 0.6 97.83      
22:00 2.0 2.0 100   23 4 6.4 97.81      
23:00 -0.2 -0.2 100     0 0.3 97.78      

Notes on Data Quality.

Legend

  • E = Estimated
  • M = Missing
  • NA = Not Available*
  • [empty] = Indicates an unobserved value
Date modified: